Date String (YYYY-MM-DD hh:mm:ss) UTC,Instrument flags,Ambient pressure (hPa),Sample flow (lpm),Bypass flow (lpm),Sample temperature (°C),Ambient temperature (°C),ASC tube jacket temperature (°C),LED temperature (°C),Box temperature (°C),Sample RH (%),Span deviation,Mass concentration (μg/m³),Mass concentration (μg/m³),Mass concentration (μg/m³)
DateTimeUTC,F1_M11,P_M11,Q1_M11,Q2_M11,T1_M11,T2_M11,T3_M11,T4_M11,T5_M11,U1_M11,ZSPAN_M11,X0_M11,X2_M11,X1_M11
2023-05-09 15:00:00,,0830.0,4.99,0.00,27.4,26.0,00.0,35.6,29.1,23.5,0000.1,0011.35,0005.06,0004.10
2023-05-09 15:01:00,,0830.0,5.00,0.00,27.4,26.0,00.0,35.6,29.1,23.5,0000.0,0012.42,0005.11,0004.12
2023-05-09 15:02:00,,0830.1,4.99,0.00,27.4,26.1,00.0,35.7,29.2,23.4,0000.7,0012.35,0005.15,0004.14
2023-05-09 15:03:00,,0830.0,5.00,0.00,27.4,26.1,00.0,35.7,29.2,23.6,0001.2,0012.81,0005.19,0004.15
2023-05-09 15:04:00,,0830.0,5.00,0.00,27.4,26.1,00.0,35.7,29.2,23.7,0001.0,0013.04,0005.23,0004.16
2023-05-09 15:05:00,,0830.0,5.00,0.00,27.5,26.1,00.0,35.7,29.2,23.7,0001.0,0012.45,0005.30,0004.19
2023-05-09 15:06:00,,0830.0,5.00,0.00,27.5,26.1,00.0,35.7,29.2,23.4,0000.7,0012.38,0005.31,0004.20
2023-05-09 15:07:00,,0830.0,5.00,0.00,27.5,26.1,00.0,35.7,29.2,23.5,0000.9,0012.58,0005.34,0004.23
2023-05-09 15:08:00,,0830.0,5.01,0.00,27.5,26.2,00.0,35.7,29.2,23.5,0001.2,0012.62,0005.31,0004.23
2023-05-09 15:09:00,,0830.0,5.01,0.00,27.5,26.2,00.0,35.8,29.3,23.3,0001.4,0012.80,0005.30,0004.23
2023-05-09 15:10:00,,0830.0,5.00,0.00,27.5,26.2,00.0,35.8,29.3,23.4,0001.0,0013.84,0005.29,0004.22
2023-05-09 15:11:00,,0830.0,5.01,0.00,27.5,26.2,00.0,35.8,29.3,23.3,0001.2,0013.77,0005.30,0004.21
2023-05-09 15:12:00,,0830.0,5.00,0.00,27.6,26.2,00.0,35.8,29.3,23.1,0001.2,0012.86,0005.30,0004.22
2023-05-09 15:13:00,,0830.0,5.00,0.00,27.6,26.3,00.0,35.8,29.3,23.0,0001.1,0012.87,0005.28,0004.21
2023-05-09 15:14:00,,0830.0,4.99,0.00,27.6,26.3,00.0,35.8,29.4,22.9,0000.6,0012.55,0005.26,0004.21
2023-05-09 15:15:00,,0830.0,5.00,0.00,27.6,26.3,00.0,35.8,29.4,23.1,0000.5,0013.03,0005.23,0004.21
2023-05-09 15:16:00,,0830.0,5.00,0.00,27.6,26.3,00.0,35.9,29.4,23.0,0000.4,0013.86,0005.21,0004.19
2023-05-09 15:17:00,,0830.0,5.00,0.00,27.6,26.3,00.0,35.9,29.4,22.9,0000.8,0014.12,0005.18,0004.19
2023-05-09 15:18:00,,0829.9,5.00,0.00,27.7,26.4,00.0,35.9,29.4,22.9,0001.2,0014.03,0005.18,0004.18
2023-05-09 15:19:00,,0829.9,5.00,0.00,27.7,26.4,00.0,35.9,29.4,23.0,0000.8,0014.56,0005.20,0004.18
2023-05-09 15:20:00,,0829.8,5.01,0.00,27.7,26.4,00.0,35.9,29.4,23.2,0000.2,0015.62,0005.22,0004.18
2023-05-09 15:21:00,,0829.8,5.01,0.00,27.7,26.4,00.0,35.9,29.5,23.0,0000.5,0015.01,0005.23,0004.17
2023-05-09 15:22:00,,0829.8,4.99,0.00,27.7,26.4,00.0,36.0,29.5,22.8,0000.1,0014.43,0005.27,0004.17
2023-05-09 15:23:00,,0829.8,4.99,0.00,27.7,26.4,00.0,36.0,29.5,22.7,-000.7,0014.12,0005.25,0004.14
2023-05-09 15:24:00,,0829.8,5.01,0.00,27.8,26.4,00.0,36.0,29.5,22.8,-000.2,0014.13,0005.24,0004.13
2023-05-09 15:25:00,,0829.8,5.00,0.00,27.8,26.5,00.0,36.0,29.5,22.7,-000.6,0014.00,0005.23,0004.12
2023-05-09 15:26:00,,0829.8,4.99,0.00,27.8,26.5,00.0,36.0,29.5,22.6,-000.2,0013.45,0005.21,0004.12
2023-05-09 15:27:00,,0829.8,4.99,0.00,27.8,26.5,00.0,36.0,29.6,22.6,-000.9,0012.45,0005.14,0004.11
2023-05-09 15:28:00,,0829.8,5.00,0.00,27.8,26.5,00.0,36.1,29.6,22.4,-000.9,0012.18,0005.12,0004.09
2023-05-09 15:29:00,,0829.8,5.00,0.00,27.8,26.5,00.0,36.1,29.6,22.6,-001.1,0013.19,0005.14,0004.09
2023-05-09 15:30:00,,0829.8,5.02,0.00,27.9,26.5,00.0,36.1,29.6,22.4,-001.1,0013.19,0005.12,0004.07
2023-05-09 15:31:00,,0829.7,5.01,0.00,27.9,26.5,00.0,36.1,29.6,22.3,-000.4,0012.00,0005.09,0004.05
2023-05-09 15:32:00,,0829.7,4.99,0.00,27.9,26.6,00.0,36.1,29.6,22.9,-000.7,0011.63,0005.07,0004.05
2023-05-09 15:33:00,,0829.7,5.00,0.00,27.9,26.6,00.0,36.1,29.6,22.9,-001.2,0011.60,0005.06,0004.04
2023-05-09 15:34:00,,0829.7,5.01,0.00,27.9,26.6,00.0,36.2,29.7,22.8,-000.6,0012.12,0005.02,0004.04
2023-05-09 15:35:00,,0829.7,5.01,0.00,27.9,26.6,00.0,36.2,29.7,22.5,-001.0,0012.16,0005.04,0004.04
2023-05-09 15:36:00,,0829.7,4.99,0.00,27.9,26.7,00.0,36.2,29.7,22.2,-000.9,0012.24,0005.04,0004.03
2023-05-09 15:37:00,,0829.7,4.99,0.00,28.0,26.7,00.0,36.2,29.7,21.9,-000.9,0012.58,0005.06,0004.01
2023-05-09 15:38:00,,0829.7,4.99,0.00,28.0,26.7,00.0,36.2,29.7,21.9,-000.9,0012.65,0005.08,0003.99
2023-05-09 15:39:00,,0829.7,5.00,0.00,28.0,26.7,00.0,36.2,29.7,22.6,-000.5,0013.26,0005.09,0003.98
2023-05-09 15:40:00,,0829.7,5.00,0.00,28.0,26.7,00.0,36.3,29.7,22.0,-000.5,0012.34,0004.99,0003.96
2023-05-09 15:41:00,,0829.7,5.00,0.00,28.0,26.7,00.0,36.3,29.8,21.8,-000.4,0011.71,0004.92,0003.94
2023-05-09 15:42:00,,0829.7,5.01,0.00,28.1,26.8,00.0,36.3,29.8,22.2,-001.3,0012.02,0004.91,0003.93
2023-05-09 15:43:00,,0829.7,5.00,0.00,28.1,26.8,00.0,36.3,29.8,22.2,-000.8,0012.45,0004.92,0003.92
2023-05-09 15:44:00,,0829.7,5.00,0.00,28.1,26.8,00.0,36.3,29.8,22.0,0000.1,0011.93,0004.86,0003.91
2023-05-09 15:45:00,,0829.7,5.00,0.00,28.1,26.8,00.0,36.3,29.8,22.0,-000.3,0011.33,0004.84,0003.90
2023-05-09 15:46:00,,0829.7,5.00,0.00,28.1,26.8,00.0,36.4,29.9,21.9,0000.0,0011.34,0004.82,0003.90
2023-05-09 15:47:00,,0829.7,5.00,0.00,28.2,26.9,00.0,36.4,29.9,21.7,0000.2,0011.11,0004.79,0003.89
2023-05-09 15:48:00,,0829.7,5.00,0.00,28.2,26.9,00.0,36.4,29.9,21.7,0000.2,0010.82,0004.81,0003.89
2023-05-09 15:49:00,,0829.7,4.99,0.00,28.2,26.9,00.0,36.4,29.9,21.7,-000.2,0010.77,0004.84,0003.90
2023-05-09 15:50:00,,0829.7,4.99,0.00,28.2,26.9,00.0,36.4,29.9,22.1,-000.1,0010.98,0004.88,0003.90
2023-05-09 15:51:00,,0829.7,5.00,0.00,28.2,26.9,00.0,36.4,30.0,22.0,0000.0,0011.14,0004.93,0003.90
2023-05-09 15:52:00,,0829.7,5.01,0.00,28.2,26.9,00.0,36.5,30.0,22.1,0000.0,0011.46,0004.95,0003.92
2023-05-09 15:53:00,,0829.7,5.01,0.00,28.3,27.0,00.0,36.5,30.0,21.7,0000.0,0011.48,0004.99,0003.94
2023-05-09 15:54:00,,0829.7,5.00,0.00,28.3,27.0,00.0,36.5,30.0,21.5,-000.2,0011.42,0004.99,0003.97
2023-05-09 15:55:00,,0829.7,4.99,0.00,28.3,27.0,00.0,36.5,30.0,21.7,-000.4,0011.74,0005.06,0004.00
2023-05-09 15:56:00,,0829.7,4.99,0.00,28.3,27.0,00.0,36.6,30.0,21.6,-000.3,0011.95,0005.09,0004.03
2023-05-09 15:57:00,,0829.7,5.00,0.00,28.3,27.1,00.0,36.6,30.0,21.9,-000.4,0012.22,0005.09,0004.03
2023-05-09 15:58:00,,0829.7,5.00,0.00,28.4,27.1,00.0,36.6,30.1,21.8,-000.4,0012.93,0005.16,0004.05
2023-05-09 15:59:00,,0829.7,5.01,0.00,28.4,27.1,00.0,36.6,30.1,21.9,-000.3,0012.86,0005.13,0004.08
